Regional Weather Roundup
Issued by NWS

Home | Current Version | Previous Version | Graphics & Text | Print | Product List | Glossary Off
Versions: 1 2 3 4 5 6 7 8 9 10 11 12 13 14 15 16 17 18 19 20 21 22 23 24 25 26 27 28 29 30 31 32 33 34 35 36 37 38 39 40 41 42 43 44 45 46 47 48 49 50

000
ASUS43 KTOP 311508
RWRKS

WEATHER ROUNDUP FOR KANSAS
NATIONAL WEATHER SERVICE GOODLAND KS
1000 AM CDT TUE MAY 31 2016

NOTE:  "FAIR" INDICATES FEW OR NO CLOUDS BELOW 12,000 FEET WITH NO
SIGNIFICANT WEATHER AND/OR OBSTRUCTIONS TO VISIBILITY.

KSZ001>006-013>018-027>032-041>047-311600-
NORTHWEST KANSAS

CITY           SKY/WX    TMP DP  RH WIND       PRES   REMARKS
GOODLAND       PTSUNNY   57  49  74 N13       30.11S
HAYS           CLOUDY    64  55  72 N15       29.99S
HILL CITY      MOSUNNY   64  54  69 N16       30.04S
RUSSELL        CLOUDY    64  60  87 NW13      29.97R
$$

KSZ061>065-074>080-084>089-311600-
SOUTHWEST KANSAS

CITY           SKY/WX    TMP DP  RH WIND       PRES   REMARKS
DODGE CITY     CLOUDY    62  58  86 N12       30.01S
ELKHART          N/A     67  55  65 N2          N/A
GARDEN CITY    MOSUNNY   64  56  75 N12       30.02S
GREAT BEND     CLOUDY    63  54  72 NW5       29.99R
LIBERAL        CLOUDY    64  55  72 N18G24    30.00R
PRATT          CLOUDY    63  57  81 N9        29.98R
$$

KSZ066>073-081>083-090>101-311600-
SOUTHEAST KANSAS

CITY           SKY/WX    TMP DP  RH WIND       PRES   REMARKS
CHANUTE        CLOUDY    70  65  84 SW12      29.96S
COFFEYVILLE    CLOUDY    67  65  93 MISG      29.97R
HUTCHINSON     CLOUDY    65  61  87 SW6       29.97R
MEDICINE LODGE   N/A     67  59  75 CALM      29.96S
NEWTON         CLOUDY    61  57  88 SE10      29.98F
PARSONS        CLOUDY    69  66  90 CALM      29.98R
WICHITA INTL   CLOUDY    66  61  84 CALM      29.95S
WICHITA JABRA  CLOUDY    63  61  93 SE3       29.95R
WICHITA MCCONL PTSUNNY   64  61  88 E5        29.94F
WINFIELD       CLOUDY    65  63  93 NE10      29.93F
$$

KSZ007>012-019>026-033>040-048>060-102>105-311600-
NORTHEAST KANSAS

CITY           SKY/WX    TMP DP  RH WIND       PRES   REMARKS
CONCORDIA      CLOUDY    65  60  84 VRB3      29.97R
EMPORIA        CLOUDY    65  63  93 S6        29.96R
LAWRENCE       CLOUDY    68  63  84 SW3       29.97R
MANHATTAN      CLOUDY    67  59  75 CALM      29.96R
MARYSVILLE     CLOUDY    68  61  77 N7        29.97R
OLATHE IND     CLOUDY    69  63  81 SE8       29.97R
OLATHE EXE     CLOUDY    66  63  90 S7        29.97R
SALINA         CLOUDY    66  62  87 N5        29.96S
TOPEKA BILLARD CLOUDY    70  62  76 W7        29.96R
TOPEKA FORBES  CLOUDY    71  64  78 SW8       29.96R
$$




USA.gov is the U.S. government's official web portal to all federal, state and local government web resources and services.